BAW926 EGLL-EDDM

Flight info

Callsign BAW926
Flight time 1h 19m
Altitude 35000
Route DET L6 DVR UL9 KONAN UL607 SPI DCT MOVUM T109 HAREM T104 ROKIL ROKIL1A
Aircraft A320/M-SDE3FGHIRWY/LB1

Departure

Time 2026-05-06 10:37
Airport London Heathrow Airport (EGLL)

Arrival

Time 2026-05-06 11:56
Airport Munich Airport (EDDM)
Time Latitude Longitude Altitude Speed Heading
2026-05-06 10:11 51.46850 -0.48225 85 ft 0 kts 89°
2026-05-06 10:26 51.46850 -0.48226 85 ft 1 kts 89°
2026-05-06 10:26 51.46850 -0.48265 86 ft 4 kts 93°
2026-05-06 10:26 51.46853 -0.48308 87 ft 4 kts 104°
2026-05-06 10:27 51.46863 -0.48346 89 ft 4 kts 140°
2026-05-06 10:27 51.46874 -0.48356 88 ft 0 kts 180°
2026-05-06 10:31 51.46858 -0.48356 88 ft 4 kts 180°
2026-05-06 10:31 51.46826 -0.48357 86 ft 0 kts 180°
2026-05-06 10:32 51.46781 -0.48356 85 ft 11 kts 180°
2026-05-06 10:33 51.46742 -0.48435 86 ft 11 kts 271°
2026-05-06 10:33 51.46742 -0.48570 85 ft 13 kts 268°
2026-05-06 10:33 51.46733 -0.48714 85 ft 10 kts 252°
2026-05-06 10:33 51.46680 -0.48751 86 ft 9 kts 181°
2026-05-06 10:34 51.46612 -0.48762 89 ft 9 kts 196°
2026-05-06 10:34 51.46599 -0.48769 88 ft 0 kts 198°
2026-05-06 10:35 51.46591 -0.48773 86 ft 4 kts 198°
2026-05-06 10:35 51.46544 -0.48788 85 ft 8 kts 180°
2026-05-06 10:35 51.46494 -0.48750 86 ft 8 kts 130°
2026-05-06 10:35 51.46477 -0.48659 86 ft 10 kts 90°
2026-05-06 10:36 51.46478 -0.48435 87 ft 45 kts 89°
2026-05-06 10:36 51.46482 -0.47574 81 ft 109 kts 90°
2026-05-06 10:36 51.46487 -0.46099 84 ft 155 kts 89°
2026-05-06 10:36 51.46501 -0.44248 394 ft 170 kts 85°
2026-05-06 10:37 51.46486 -0.42321 1023 ft 175 kts 90°
2026-05-06 10:37 51.46001 -0.40469 1575 ft 194 kts 124°
2026-05-06 10:37 51.45135 -0.38646 1850 ft 218 kts 124°
2026-05-06 10:37 51.44182 -0.36580 2215 ft 242 kts 117°
2026-05-06 10:38 51.43598 -0.33986 2781 ft 254 kts 100°
2026-05-06 10:38 51.43195 -0.31193 3684 ft 259 kts 99°
2026-05-06 10:38 51.42784 -0.28352 4589 ft 265 kts 98°
2026-05-06 10:38 51.42372 -0.25431 5435 ft 272 kts 98°
2026-05-06 10:39 51.41959 -0.22423 5880 ft 280 kts 98°
2026-05-06 10:39 51.41542 -0.19370 5992 ft 281 kts 98°
2026-05-06 10:39 51.41122 -0.16309 6002 ft 281 kts 98°
2026-05-06 10:39 51.40814 -0.14069 6001 ft 281 kts 98°
2026-05-06 10:40 51.40395 -0.11016 6001 ft 281 kts 98°
2026-05-06 10:40 51.39978 -0.07960 5999 ft 280 kts 98°
2026-05-06 10:40 51.39558 -0.04908 5999 ft 281 kts 98°
2026-05-06 10:40 51.39133 -0.01834 6538 ft 284 kts 99°
2026-05-06 10:41 51.38703 0.01259 7491 ft 285 kts 99°
2026-05-06 10:41 51.38267 0.04371 8395 ft 288 kts 99°
2026-05-06 10:41 51.37825 0.07521 9272 ft 292 kts 101°
2026-05-06 10:41 51.37376 0.10708 10083 ft 296 kts 101°
2026-05-06 10:42 51.36910 0.14025 10421 ft 317 kts 100°
2026-05-06 10:42 51.36412 0.17598 10616 ft 340 kts 102°
2026-05-06 10:42 51.35889 0.21364 11073 ft 351 kts 102°
2026-05-06 10:42 51.35351 0.25194 11764 ft 355 kts 101°
2026-05-06 10:43 51.34803 0.29073 12408 ft 361 kts 101°
2026-05-06 10:43 51.34244 0.33014 13070 ft 365 kts 102°
2026-05-06 10:43 51.33675 0.36990 13776 ft 368 kts 102°
2026-05-06 10:44 51.32525 0.44991 15015 ft 377 kts 102°
2026-05-06 10:44 51.31938 0.49096 15628 ft 380 kts 102°
2026-05-06 10:44 51.31346 0.53214 16256 ft 382 kts 103°
2026-05-06 10:44 51.30746 0.57375 16828 ft 386 kts 103°
2026-05-06 10:45 51.30120 0.61570 17375 ft 390 kts 104°
2026-05-06 10:45 51.29408 0.65771 18031 ft 392 kts 106°
2026-05-06 10:45 51.28638 0.69966 18617 ft 396 kts 107°
2026-05-06 10:45 51.27832 0.74193 19120 ft 400 kts 107°
2026-05-06 10:46 51.27012 0.78461 19702 ft 403 kts 108°
2026-05-06 10:46 51.26194 0.82747 20301 ft 405 kts 107°
2026-05-06 10:46 51.25381 0.87063 20845 ft 408 kts 107°
2026-05-06 10:46 51.24570 0.91427 21342 ft 412 kts 108°
2026-05-06 10:47 51.23761 0.95826 21876 ft 414 kts 107°
2026-05-06 10:47 51.22959 1.00190 22444 ft 415 kts 108°
2026-05-06 10:47 51.22140 1.04627 22944 ft 418 kts 108°
2026-05-06 10:47 51.21311 1.09096 23430 ft 421 kts 107°
2026-05-06 10:48 51.20473 1.13582 23888 ft 423 kts 108°
2026-05-06 10:48 51.19630 1.18083 24289 ft 425 kts 107°
2026-05-06 10:48 51.18777 1.22611 24670 ft 428 kts 108°
2026-05-06 10:48 51.17913 1.27173 25063 ft 430 kts 108°
2026-05-06 10:49 51.17047 1.31741 25476 ft 431 kts 109°
2026-05-06 10:49 51.16321 1.36395 25809 ft 436 kts 101°
2026-05-06 10:49 51.16008 1.41220 26170 ft 439 kts 95°
2026-05-06 10:49 51.15787 1.46071 26602 ft 439 kts 95°
2026-05-06 10:50 51.15558 1.50934 26983 ft 441 kts 95°
2026-05-06 10:50 51.15321 1.55813 27361 ft 443 kts 95°
2026-05-06 10:50 51.15077 1.60706 27749 ft 444 kts 95°
2026-05-06 10:50 51.14831 1.65628 28094 ft 447 kts 95°
2026-05-06 10:51 51.14584 1.70569 28462 ft 448 kts 95°
2026-05-06 10:51 51.14336 1.75528 28801 ft 451 kts 96°
2026-05-06 10:51 51.14084 1.80510 29123 ft 453 kts 96°
2026-05-06 10:51 51.13833 1.85454 29476 ft 454 kts 95°
2026-05-06 10:52 51.13576 1.90460 29931 ft 453 kts 95°
2026-05-06 10:52 51.13318 1.95442 30424 ft 450 kts 95°
2026-05-06 10:52 51.13060 2.00392 30903 ft 447 kts 95°
2026-05-06 10:52 51.12801 2.05331 31334 ft 446 kts 95°
2026-05-06 10:53 51.12539 2.10241 31762 ft 445 kts 95°
2026-05-06 10:53 51.12275 2.15141 32194 ft 444 kts 95°
2026-05-06 10:53 51.12010 2.20031 32612 ft 443 kts 95°
2026-05-06 10:53 51.11743 2.24916 33043 ft 442 kts 95°
2026-05-06 10:54 51.11481 2.29717 33457 ft 441 kts 96°
2026-05-06 10:54 51.11215 2.34573 33892 ft 440 kts 95°
2026-05-06 10:54 51.10949 2.39413 34252 ft 439 kts 95°
2026-05-06 10:54 51.10680 2.44251 34562 ft 439 kts 96°
2026-05-06 10:55 51.10407 2.49093 34809 ft 440 kts 96°
2026-05-06 10:55 51.09838 2.58867 34928 ft 447 kts 96°
2026-05-06 10:56 51.08848 2.68617 34920 ft 447 kts 107°
2026-05-06 10:56 51.07127 2.78125 34920 ft 447 kts 107°
2026-05-06 10:57 51.05401 2.87631 34940 ft 447 kts 107°
2026-05-06 10:57 51.03677 2.97115 34936 ft 446 kts 107°
2026-05-06 10:58 51.01946 3.06589 34925 ft 447 kts 107°
2026-05-06 10:58 51.00193 3.16052 34917 ft 447 kts 108°
2026-05-06 10:59 50.98435 3.25509 34904 ft 447 kts 108°
2026-05-06 10:59 50.96675 3.34958 34900 ft 446 kts 107°
2026-05-06 11:00 50.94911 3.44381 34897 ft 445 kts 108°
2026-05-06 11:00 50.93140 3.53785 34897 ft 445 kts 107°
2026-05-06 11:01 50.91363 3.63177 34882 ft 445 kts 108°
2026-05-06 11:01 50.89570 3.72552 34898 ft 445 kts 108°
2026-05-06 11:02 50.87764 3.81912 34888 ft 445 kts 108°
2026-05-06 11:02 50.85940 3.91277 34894 ft 445 kts 108°
2026-05-06 11:03 50.84115 4.00639 34898 ft 445 kts 109°
2026-05-06 11:03 50.82278 4.10015 34897 ft 446 kts 109°
2026-05-06 11:04 50.80432 4.19372 34900 ft 446 kts 108°
2026-05-06 11:04 50.78581 4.28725 34902 ft 446 kts 109°
2026-05-06 11:05 50.76737 4.38019 34906 ft 446 kts 109°
2026-05-06 11:05 50.74874 4.47359 34912 ft 446 kts 110°
2026-05-06 11:06 50.72993 4.56701 34906 ft 446 kts 109°
2026-05-06 11:06 50.71128 4.66034 34911 ft 446 kts 108°
2026-05-06 11:07 50.69322 4.75399 34884 ft 447 kts 109°
2026-05-06 11:07 50.67509 4.84791 35240 ft 448 kts 108°
2026-05-06 11:07 50.66593 4.89490 35527 ft 448 kts 109°
2026-05-06 11:08 50.65672 4.94186 35803 ft 449 kts 109°
2026-05-06 11:08 50.64729 4.98873 36069 ft 449 kts 109°
2026-05-06 11:08 50.63765 5.03553 36306 ft 450 kts 110°
2026-05-06 11:08 50.62791 5.08232 36529 ft 450 kts 110°
2026-05-06 11:09 50.61810 5.12918 36730 ft 451 kts 110°
2026-05-06 11:09 50.60832 5.17616 36855 ft 452 kts 110°
2026-05-06 11:09 50.59856 5.22324 36872 ft 453 kts 110°
2026-05-06 11:10 50.57899 5.31752 36870 ft 453 kts 110°
2026-05-06 11:10 50.55932 5.41167 36865 ft 453 kts 110°
2026-05-06 11:11 50.53962 5.50567 36864 ft 453 kts 110°
2026-05-06 11:11 50.51979 5.59964 36853 ft 453 kts 110°
2026-05-06 11:12 50.50077 5.69412 36853 ft 454 kts 108°
2026-05-06 11:12 50.48384 5.78985 36844 ft 455 kts 107°
2026-05-06 11:13 50.46720 5.88584 36852 ft 456 kts 108°
2026-05-06 11:13 50.44997 5.98148 36848 ft 456 kts 108°
2026-05-06 11:14 50.43221 6.07697 36838 ft 455 kts 109°
2026-05-06 11:14 50.41459 6.17170 36836 ft 455 kts 109°
2026-05-06 11:15 50.39687 6.26700 36841 ft 455 kts 109°
2026-05-06 11:15 50.37909 6.36216 36824 ft 455 kts 109°
2026-05-06 11:16 50.36130 6.45716 36823 ft 455 kts 109°
2026-05-06 11:16 50.34335 6.55206 36799 ft 455 kts 109°
2026-05-06 11:17 50.32532 6.64695 36809 ft 455 kts 109°
2026-05-06 11:17 50.30727 6.74186 36802 ft 455 kts 109°
2026-05-06 11:18 50.28914 6.83672 36806 ft 455 kts 109°
2026-05-06 11:18 50.27400 6.91546 36788 ft 455 kts 110°
2026-05-06 11:19 50.25569 7.01019 36789 ft 456 kts 110°
2026-05-06 11:19 50.23724 7.10497 36793 ft 456 kts 110°
2026-05-06 11:20 50.21558 7.21581 36796 ft 456 kts 110°
2026-05-06 11:20 50.20009 7.29457 36798 ft 457 kts 110°
2026-05-06 11:21 50.18142 7.38927 36764 ft 457 kts 110°
2026-05-06 11:21 50.16265 7.48409 36772 ft 458 kts 110°
2026-05-06 11:22 50.14373 7.57909 36776 ft 458 kts 110°
2026-05-06 11:22 50.12638 7.66570 36782 ft 459 kts 110°
2026-05-06 11:23 50.10732 7.76049 36778 ft 459 kts 110°
2026-05-06 11:23 50.08810 7.85540 36775 ft 459 kts 111°
2026-05-06 11:24 50.06886 7.95033 36793 ft 460 kts 111°
2026-05-06 11:24 50.04953 8.04530 36805 ft 461 kts 111°
2026-05-06 11:25 50.03008 8.14024 36805 ft 460 kts 111°
2026-05-06 11:25 50.01057 8.23498 36797 ft 460 kts 111°
2026-05-06 11:26 49.99094 8.32984 36806 ft 461 kts 111°
2026-05-06 11:26 49.97118 8.42470 36806 ft 461 kts 111°
2026-05-06 11:27 49.95090 8.51846 36794 ft 459 kts 117°
2026-05-06 11:27 49.92098 8.60505 36781 ft 455 kts 124°
2026-05-06 11:28 49.88956 8.69014 36786 ft 455 kts 123°
2026-05-06 11:28 49.85813 8.77517 36789 ft 454 kts 124°
2026-05-06 11:29 49.82643 8.86058 36803 ft 453 kts 124°
2026-05-06 11:29 49.79497 8.94512 36806 ft 453 kts 124°
2026-05-06 11:30 49.76354 9.02940 36799 ft 452 kts 124°
2026-05-06 11:30 49.73225 9.11289 36789 ft 451 kts 124°
2026-05-06 11:31 49.70067 9.19675 36796 ft 451 kts 124°
2026-05-06 11:31 49.66898 9.28060 36803 ft 451 kts 124°
2026-05-06 11:32 49.63734 9.36431 36806 ft 451 kts 124°
2026-05-06 11:32 49.60196 9.44335 36806 ft 444 kts 135°
2026-05-06 11:32 49.58150 9.47908 36651 ft 445 kts 136°
2026-05-06 11:33 49.56105 9.51490 36387 ft 445 kts 136°
2026-05-06 11:33 49.54087 9.55033 36137 ft 446 kts 136°
2026-05-06 11:33 49.52042 9.58624 35887 ft 445 kts 136°
2026-05-06 11:33 49.50000 9.62208 35639 ft 445 kts 136°
2026-05-06 11:34 49.47957 9.65783 35389 ft 445 kts 136°
2026-05-06 11:34 49.45910 9.69350 35152 ft 444 kts 136°
2026-05-06 11:34 49.43861 9.72913 34900 ft 444 kts 136°
2026-05-06 11:34 49.41809 9.76469 34129 ft 447 kts 137°
2026-05-06 11:35 49.39735 9.80060 33169 ft 451 kts 137°
2026-05-06 11:35 49.37650 9.83670 32278 ft 451 kts 137°
2026-05-06 11:35 49.35568 9.87278 31313 ft 451 kts 137°
2026-05-06 11:35 49.33488 9.90876 30408 ft 450 kts 137°
2026-05-06 11:36 49.31421 9.94447 29818 ft 442 kts 137°
2026-05-06 11:36 49.29397 9.97944 29176 ft 436 kts 137°
2026-05-06 11:36 49.27394 10.01397 28585 ft 430 kts 137°
2026-05-06 11:36 49.25417 10.04793 27988 ft 425 kts 137°
2026-05-06 11:37 49.23458 10.08147 27398 ft 419 kts 136°
2026-05-06 11:37 49.21525 10.11452 26818 ft 415 kts 136°
2026-05-06 11:37 49.19608 10.14722 26253 ft 411 kts 136°
2026-05-06 11:37 49.17735 10.17916 25689 ft 407 kts 136°
2026-05-06 11:38 49.15854 10.21125 25123 ft 404 kts 136°
2026-05-06 11:38 49.13985 10.24313 24552 ft 401 kts 136°
2026-05-06 11:38 49.12105 10.27443 24015 ft 399 kts 137°
2026-05-06 11:38 49.10206 10.30518 23487 ft 397 kts 137°
2026-05-06 11:39 49.08302 10.33556 22909 ft 395 kts 137°
2026-05-06 11:39 49.06407 10.36565 22389 ft 391 kts 137°
2026-05-06 11:39 49.04533 10.39539 21904 ft 388 kts 138°
2026-05-06 11:39 49.02676 10.42497 21416 ft 385 kts 137°
2026-05-06 11:40 49.00835 10.45435 20951 ft 382 kts 137°
2026-05-06 11:40 48.99010 10.48352 20474 ft 379 kts 137°
2026-05-06 11:40 48.97196 10.51250 19975 ft 377 kts 137°
2026-05-06 11:40 48.95385 10.54137 19473 ft 375 kts 137°
2026-05-06 11:41 48.93582 10.57006 18953 ft 375 kts 137°
2026-05-06 11:41 48.91783 10.59863 18436 ft 373 kts 137°
2026-05-06 11:41 48.89994 10.62703 17864 ft 372 kts 137°
2026-05-06 11:41 48.88212 10.65528 17318 ft 369 kts 137°
2026-05-06 11:42 48.86440 10.68336 16759 ft 366 kts 137°
2026-05-06 11:42 48.84683 10.71118 16219 ft 363 kts 137°
2026-05-06 11:42 48.82940 10.73872 15668 ft 361 kts 138°
2026-05-06 11:42 48.81210 10.76601 15266 ft 354 kts 138°
2026-05-06 11:43 48.79530 10.79255 14861 ft 348 kts 139°
2026-05-06 11:43 48.77847 10.81905 14271 ft 349 kts 139°
2026-05-06 11:43 48.76163 10.84549 13761 ft 347 kts 139°
2026-05-06 11:44 48.72826 10.89784 12712 ft 342 kts 138°
2026-05-06 11:44 48.71176 10.92360 12235 ft 339 kts 138°
2026-05-06 11:44 48.69540 10.94914 11752 ft 337 kts 138°
2026-05-06 11:44 48.67914 10.97452 11242 ft 335 kts 138°
2026-05-06 11:45 48.66296 10.99978 10755 ft 332 kts 138°
2026-05-06 11:45 48.64695 11.02477 10291 ft 330 kts 138°
2026-05-06 11:45 48.63128 11.04921 9897 ft 326 kts 138°
2026-05-06 11:45 48.61580 11.07338 9735 ft 315 kts 138°
2026-05-06 11:46 48.60080 11.09677 9555 ft 305 kts 138°
2026-05-06 11:46 48.58612 11.11956 9246 ft 300 kts 138°
2026-05-06 11:46 48.57173 11.14190 9047 ft 290 kts 138°
2026-05-06 11:46 48.55823 11.16293 8909 ft 269 kts 138°
2026-05-06 11:47 48.54558 11.18257 8686 ft 254 kts 138°
2026-05-06 11:47 48.53341 11.20140 8410 ft 249 kts 138°
2026-05-06 11:47 48.52133 11.22000 8124 ft 245 kts 138°
2026-05-06 11:47 48.50965 11.23799 7842 ft 235 kts 138°
2026-05-06 11:48 48.49832 11.25545 7576 ft 232 kts 137°
2026-05-06 11:48 48.48710 11.27272 7326 ft 229 kts 137°
2026-05-06 11:48 48.47632 11.28934 7154 ft 214 kts 137°
2026-05-06 11:48 48.46623 11.30494 6901 ft 203 kts 137°
2026-05-06 11:49 48.45649 11.31995 6456 ft 202 kts 136°
2026-05-06 11:49 48.44668 11.33504 5977 ft 201 kts 136°
2026-05-06 11:49 48.43691 11.35002 5513 ft 199 kts 135°
2026-05-06 11:49 48.42729 11.36477 5151 ft 194 kts 135°
2026-05-06 11:50 48.41808 11.37892 4875 ft 186 kts 134°
2026-05-06 11:50 48.40898 11.39286 4543 ft 187 kts 134°
2026-05-06 11:50 48.39992 11.40676 4287 ft 186 kts 134°
2026-05-06 11:50 48.39090 11.42061 4063 ft 184 kts 134°
2026-05-06 11:51 48.38191 11.43445 4037 ft 187 kts 134°
2026-05-06 11:51 48.37275 11.44853 4012 ft 188 kts 133°
2026-05-06 11:51 48.36368 11.46250 4006 ft 187 kts 133°
2026-05-06 11:51 48.35457 11.47646 4008 ft 186 kts 134°
2026-05-06 11:52 48.34636 11.49133 4012 ft 186 kts 117°
2026-05-06 11:52 48.34286 11.50994 4007 ft 186 kts 92°
2026-05-06 11:52 48.34397 11.52941 4005 ft 188 kts 84°
2026-05-06 11:52 48.34556 11.54887 4004 ft 187 kts 84°
2026-05-06 11:53 48.34712 11.56832 3983 ft 187 kts 84°
2026-05-06 11:53 48.34866 11.58775 3824 ft 188 kts 84°
2026-05-06 11:53 48.35020 11.60711 3591 ft 186 kts 83°
2026-05-06 11:53 48.35171 11.62635 3355 ft 184 kts 83°
2026-05-06 11:54 48.35322 11.64549 3110 ft 184 kts 83°
2026-05-06 11:54 48.35467 11.66401 2871 ft 170 kts 83°
2026-05-06 11:54 48.35596 11.68041 2667 ft 148 kts 82°
2026-05-06 11:54 48.35713 11.69543 2472 ft 143 kts 83°
2026-05-06 11:55 48.35828 11.71006 2266 ft 140 kts 82°
2026-05-06 11:55 48.35941 11.72458 2079 ft 140 kts 80°
2026-05-06 11:55 48.36053 11.73898 1891 ft 136 kts 81°
2026-05-06 11:55 48.36162 11.75316 1709 ft 136 kts 82°
2026-05-06 11:56 48.36276 11.76732 1518 ft 136 kts 82°
2026-05-06 11:56 48.36383 11.78066 1458 ft 111 kts 83°
2026-05-06 11:56 48.36449 11.78964 1464 ft 66 kts 83°
2026-05-06 11:56 48.36421 11.79348 1466 ft 29 kts 108°
2026-05-06 11:57 48.36352 11.79602 1465 ft 22 kts 113°
2026-05-06 11:57 48.36303 11.79769 1460 ft 16 kts 116°
2026-05-06 11:57 48.36262 11.79823 1465 ft 0 kts 152°
2026-05-06 11:57 48.36255 11.79826 1466 ft 1 kts 168°
2026-05-06 11:58 48.36247 11.79815 1461 ft 2 kts 236°
2026-05-06 11:58 48.36241 11.79787 1466 ft 4 kts 254°
2026-05-06 11:58 48.36234 11.79724 1465 ft 9 kts 263°
2026-05-06 11:58 48.36225 11.79611 1468 ft 13 kts 263°
2026-05-06 11:59 48.36213 11.79451 1462 ft 17 kts 263°
2026-05-06 11:59 48.36198 11.79258 1468 ft 20 kts 263°
2026-05-06 11:59 48.36182 11.79040 1468 ft 22 kts 264°
2026-05-06 11:59 48.36162 11.78799 1464 ft 24 kts 263°
2026-05-06 12:00 48.36144 11.78555 1467 ft 24 kts 263°
2026-05-06 12:00 48.36131 11.78381 1465 ft 26 kts 264°
2026-05-06 12:00 48.36110 11.78110 1467 ft 25 kts 263°
2026-05-06 12:00 48.36092 11.77871 1459 ft 23 kts 263°
2026-05-06 12:01 48.36078 11.77686 1457 ft 9 kts 262°
2026-05-06 12:01 48.36024 11.77664 1460 ft 10 kts 174°
2026-05-06 12:01 48.35951 11.77674 1463 ft 12 kts 174°
2026-05-06 12:01 48.35867 11.77690 1462 ft 12 kts 172°
2026-05-06 12:02 48.35787 11.77704 1463 ft 12 kts 174°
2026-05-06 12:02 48.35695 11.77718 1462 ft 14 kts 174°
2026-05-06 12:02 48.35588 11.77737 1461 ft 16 kts 174°
2026-05-06 12:02 48.35468 11.77757 1463 ft 18 kts 174°
2026-05-06 12:03 48.35360 11.77779 1460 ft 8 kts 160°
2026-05-06 12:03 48.35334 11.77852 1466 ft 9 kts 88°
2026-05-06 12:03 48.35343 11.77961 1464 ft 12 kts 83°
2026-05-06 12:03 48.35353 11.78085 1462 ft 10 kts 85°
2026-05-06 12:04 48.35320 11.78171 1463 ft 8 kts 131°
2026-05-06 12:04 48.35318 11.78265 1466 ft 10 kts 83°
2026-05-06 12:04 48.35323 11.78321 1466 ft 0 kts 80°
2026-05-06 12:04 48.35323 11.78324 1466 ft 0 kts 80°